• En Estados Unidos
  • Lista de países
  • Para 7 días
  • Temperatura del agua
  • Mapa Satelital
  • El tiempo en el mapa
  • Informadores
  • user-avatar
    Iniciar sesión

    Tiempo cada hora Tibissa

    Hoy, 17 Enero, Miércoles

    Tiempo Temperatura Precipitaciones Viento Presión Humedad
    00:00 +7°C° 0 mm 2 mps 689 mmHg 51%
    01:00 +7°C° 0 mm 3 mps 689 mmHg 51%
    02:00 +7°C° 0 mm 3 mps 688 mmHg 51%
    03:00 +7°C° 0 mm 3 mps 688 mmHg 51%
    04:00 +5°C° 0 mm 3 mps 687 mmHg 51%
    05:00 +5°C° 0 mm 3 mps 687 mmHg 50%
    06:00 +6°C° 0 mm 2 mps 687 mmHg 49%
    07:00 +5°C° 0 mm 3 mps 687 mmHg 46%
    08:00 +8°C° 0 mm 2 mps 687 mmHg 41%
    09:00 +10°C° 0 mm 2 mps 688 mmHg 37%
    10:00 +13°C° 0 mm 2 mps 688 mmHg 32%
    11:00 +13°C° 0 mm 3 mps 688 mmHg 29%
    12:00 +15°C° 0 mm 4 mps 688 mmHg 26%
    13:00 +17°C° 0 mm 4 mps 688 mmHg 23%
    14:00 +16°C° 0 mm 5 mps 688 mmHg 26%
    15:00 +16°C° 0 mm 6 mps 688 mmHg 29%
    16:00 +15°C° 0 mm 6 mps 688 mmHg 32%
    17:00 +14°C° 0 mm 6 mps 688 mmHg 43%
    18:00 +12°C° 0 mm 5 mps 688 mmHg 54%
    19:00 +9°C° 0 mm 5 mps 688 mmHg 65%
    20:00 +8°C° 0 mm 5 mps 688 mmHg 72%
    21:00 +7°C° 0 mm 4 mps 688 mmHg 79%
    22:00 +6°C° 0 mm 4 mps 689 mmHg 85%
    23:00 +6°C° 0 mm 4 mps 689 mmHg 86%

    Mañana, 18 Enero, Jueves

    Tiempo Temperatura Precipitaciones Viento Presión Humedad
    00:00 +6°C° 0 mm 4 mps 689 mmHg 87%
    01:00 +6°C° 0 mm 4 mps 690 mmHg 88%
    02:00 +6°C° 0 mm 4 mps 689 mmHg 89%
    03:00 +5°C° 0 mm 3 mps 689 mmHg 91%
    04:00 +4°C° 0 mm 3 mps 689 mmHg 92%
    05:00 +5°C° 0 mm 2 mps 689 mmHg 93%
    06:00 +4°C° 0 mm 2 mps 689 mmHg 93%
    07:00 +5°C° 0 mm 1 mps 689 mmHg 93%
    08:00 +6°C° 0 mm 1 mps 690 mmHg 86%
    09:00 +8°C° 0 mm 1 mps 690 mmHg 79%
    10:00 +9°C° 0 mm 1 mps 691 mmHg 72%
    11:00 +10°C° 0 mm 1 mps 691 mmHg 63%
    12:00 +12°C° 0 mm 1 mps 691 mmHg 55%
    13:00 +13°C° 0 mm 2 mps 691 mmHg 47%
    14:00 +13°C° 0 mm 2 mps 690 mmHg 46%
    15:00 +13°C° 0 mm 3 mps 690 mmHg 44%
    16:00 +13°C° 0 mm 3 mps 690 mmHg 42%
    17:00 +12°C° 0 mm 3 mps 690 mmHg 49%
    18:00 +10°C° 0 mm 3 mps 689 mmHg 55%
    19:00 +9°C° 0 mm 3 mps 689 mmHg 62%
    20:00 +8°C° 0 mm 3 mps 689 mmHg 65%
    21:00 +8°C° 0 mm 3 mps 689 mmHg 69%
    22:00 +7°C° 0 mm 3 mps 688 mmHg 72%
    23:00 +7°C° 0 mm 3 mps 688 mmHg 74%

    Pasado mañana, 19 Enero, Viernes

    Tiempo Temperatura Precipitaciones Viento Presión Humedad
    00:00 +5°C° 0 mm 3 mps 688 mmHg 76%
    01:00 +5°C° 0 mm 3 mps 687 mmHg 78%
    02:00 +5°C° 0 mm 3 mps 687 mmHg 77%
    03:00 +6°C° 0 mm 2 mps 686 mmHg 76%
    04:00 +5°C° 0 mm 2 mps 686 mmHg 76%
    05:00 +5°C° 0 mm 2 mps 685 mmHg 74%
    06:00 +5°C° 0 mm 2 mps 685 mmHg 72%
    07:00 +5°C° 0 mm 2 mps 685 mmHg 70%
    08:00 +6°C° 0 mm 2 mps 685 mmHg 62%
    09:00 +8°C° 0 mm 2 mps 686 mmHg 54%
    10:00 +11°C° 0 mm 1 mps 686 mmHg 46%
    11:00 +12°C° 0 mm 1 mps 686 mmHg 41%
    12:00 +13°C° 0 mm 1 mps 685 mmHg 37%
    13:00 +15°C° 0 mm 1 mps 685 mmHg 32%
    14:00 +15°C° 0 mm 1 mps 685 mmHg 31%
    15:00 +15°C° 0 mm 1 mps 684 mmHg 30%
    16:00 +16°C° 0 mm 1 mps 684 mmHg 29%
    17:00 +14°C° 0 mm 1 mps 684 mmHg 35%
    18:00 +13°C° 0 mm 2 mps 684 mmHg 40%
    19:00 +12°C° 0 mm 2 mps 684 mmHg 45%
    20:00 +10°C° 0 mm 2 mps 684 mmHg 50%
    21:00 +9°C° 0 mm 2 mps 684 mmHg 55%
    22:00 +9°C° 0 mm 3 mps 684 mmHg 61%
    23:00 +8°C° 0 mm 3 mps 684 mmHg 68%

    20 Enero, Sábado

    Tiempo Temperatura Precipitaciones Viento Presión Humedad
    00:00 +7°C° 0 mm 3 mps 684 mmHg 75%
    01:00 +7°C° 0 mm 3 mps 684 mmHg 83%
    02:00 +5°C° 0 mm 4 mps 684 mmHg 85%
    03:00 +5°C° 0 mm 4 mps 684 mmHg 88%
    04:00 +5°C° 0 mm 4 mps 684 mmHg 91%
    05:00 +5°C° 0 mm 5 mps 684 mmHg 89%
    06:00 +4°C° 0 mm 6 mps 684 mmHg 88%
    07:00 +4°C° 0 mm 7 mps 684 mmHg 87%
    08:00 +4°C° 0 mm 8 mps 685 mmHg 83%
    09:00 +5°C° 0 mm 9 mps 685 mmHg 78%
    10:00 +5°C° 0 mm 9 mps 686 mmHg 74%
    11:00 +6°C° 0 mm 9 mps 686 mmHg 72%
    12:00 +6°C° 0 mm 9 mps 685 mmHg 70%
    13:00 +6°C° 0 mm 9 mps 685 mmHg 68%
    14:00 +7°C° 0 mm 9 mps 685 mmHg 68%
    15:00 +7°C° 0 mm 9 mps 685 mmHg 67%
    16:00 +7°C° 0 mm 9 mps 685 mmHg 67%
    17:00 +6°C° 0 mm 8 mps 685 mmHg 71%
    18:00 +5°C° 0 mm 7 mps 686 mmHg 76%
    19:00 +5°C° 0 mm 5 mps 686 mmHg 81%
    20:00 +5°C° 0 mm 5 mps 686 mmHg 83%
    21:00 +3°C° 0 mm 5 mps 686 mmHg 85%
    22:00 +4°C° 0 mm 4 mps 687 mmHg 88%
    23:00 +4°C° 0 mm 4 mps 686 mmHg 88%

    21 Enero, Domingo

    Tiempo Temperatura Precipitaciones Viento Presión Humedad
    00:00 +4°C° 0 mm 4 mps 686 mmHg 87%
    01:00 +3°C° 0 mm 4 mps 686 mmHg 87%
    02:00 +3°C° 0 mm 4 mps 686 mmHg 87%
    03:00 +2°C° 0 mm 5 mps 686 mmHg 87%
    04:00 +2°C° 0 mm 5 mps 685 mmHg 87%
    05:00 +2°C° 0 mm 5 mps 686 mmHg 86%
    06:00 +2°C° 0 mm 5 mps 686 mmHg 86%
    07:00 +2°C° 0 mm 5 mps 686 mmHg 86%
    08:00 +4°C° 0 mm 7 mps 686 mmHg 79%
    09:00 +5°C° 0 mm 9 mps 687 mmHg 72%
    10:00 +7°C° 0 mm 11 mps 687 mmHg 65%
    11:00 +8°C° 0 mm 12 mps 687 mmHg 66%
    12:00 +8°C° 0 mm 13 mps 687 mmHg 66%
    13:00 +9°C° 0 mm 14 mps 687 mmHg 67%
    14:00 +9°C° 0,1 mm 14 mps 687 mmHg 69%
    15:00 +9°C° 0,1 mm 14 mps 687 mmHg 71%
    16:00 +8°C° 0,1 mm 14 mps 687 mmHg 73%
    17:00 +8°C° 0 mm 14 mps 687 mmHg 76%
    18:00 +6°C° 0 mm 14 mps 688 mmHg 78%
    19:00 +7°C° 0 mm 13 mps 688 mmHg 81%
    20:00 +7°C° 0 mm 13 mps 688 mmHg 81%
    21:00 +5°C° 0 mm 13 mps 689 mmHg 82%
    22:00 +5°C° 0 mm 13 mps 689 mmHg 82%
    23:00 +5°C° 0 mm 12 mps 689 mmHg 83%

    22 Enero, Lunes

    Tiempo Temperatura Precipitaciones Viento Presión Humedad
    00:00 +5°C° 0 mm 12 mps 689 mmHg 84%
    01:00 +4°C° 0 mm 11 mps 690 mmHg 85%
    02:00 +4°C° 0 mm 11 mps 690 mmHg 86%
    03:00 +5°C° 0 mm 10 mps 690 mmHg 86%
    04:00 +5°C° 0 mm 10 mps 690 mmHg 87%
    05:00 +6°C° 0,1 mm 10 mps 690 mmHg 86%
    06:00 +6°C° 0,1 mm 10 mps 690 mmHg 86%
    07:00 +6°C° 0,1 mm 9 mps 691 mmHg 86%
    08:00 +6°C° 0 mm 9 mps 691 mmHg 84%
    09:00 +7°C° 0 mm 9 mps 691 mmHg 83%
    10:00 +7°C° 0 mm 9 mps 692 mmHg 81%
    11:00 +9°C° 0 mm 8 mps 692 mmHg 77%
    12:00 +9°C° 0 mm 8 mps 691 mmHg 73%
    13:00 +10°C° 0 mm 8 mps 691 mmHg 70%
    14:00 +10°C° 0 mm 8 mps 691 mmHg 68%
    15:00 +10°C° 0 mm 7 mps 691 mmHg 67%
    16:00 +11°C° 0 mm 7 mps 691 mmHg 65%
    17:00 +10°C° 0 mm 6 mps 691 mmHg 70%
    18:00 +9°C° 0 mm 5 mps 691 mmHg 74%
    19:00 +8°C° 0 mm 4 mps 691 mmHg 79%
    20:00 +9°C° 0 mm 3 mps 691 mmHg 81%
    21:00 +8°C° 0 mm 3 mps 691 mmHg 83%
    22:00 +8°C° 0 mm 3 mps 691 mmHg 85%
    23:00 +8°C° 0 mm 3 mps 691 mmHg 86%
    Mostrar más